Weather in Mulhouse

France     47°45′02″N   7°20′16″E
temp.,
°C
wind,
m/s
gust,
m/s
humid.,
%
clouds,
%
prec.,
mm/h
press.,
hPa
HPBL,
m
18 may, tue
tue1823:00+8wsw5139280 0.1 1016401
02:00+7sw51094100 0.1 1017355
05:00+8sw61196100 2.2 1016552
08:00+8sw5109497 3.3 1018568
11:00+10wsw588882 0.3 1017741
14:00+13w5767100 0.9 10171319
17:00+13w5765100 0.0 10161173
20:00+11wsw467910 0.1 1017183
19 may, wed
wed1923:00+7wsw3491100 0.2 102075
02:00+6sw3692100 0.2 1020115
05:00+4wsw369611 0.1 1020106
08:00+8sw46875 0.1 1021245
11:00+12sw567341 0.3 1020966
14:00+13wsw787883 1.8 10201316
17:00+12wsw577499 0.4 10201214
20:00+9sw4789100 1.0 1020288
20 may, thu
thu2023:00+7sw499488 0.6 1022240
02:00+6wsw5895100 0.7 1023204
05:00+7wsw479296 0.1 1024315
08:00+8wsw4692100 0.3 1025269
11:00+9wsw4486100 0.5 1027499
14:00+14ssw326538 0.8 10261098
17:00+15s21596 0.1 10241190
20:00+13sse22755 0.1 102420
21 may, fri
fri2123:00+8w118560 0.0 102411
02:00+6ssw1187100 0.0 102212
05:00+7s1185100 0.0 102024
08:00+9s238059 0.0 1019154
11:00+15s2564100 0.0 1017703
14:00+20wsw41152100 0.0 10131802
17:00+18sw61262100 0.0 1011735
20:00+14sw31082100 0.3 1011285
22 may, sat
sat2223:00+12sw51293100 1.4 1011476
02:00+12sw71296100 6.6 1011672
05:00+9sw71389100 6.5 1013658
08:00+7sw61291100 7.1 1015776
11:00+11sw6108266 0.3 10151330
14:00+15wsw811525 0.3 10142058
17:00+15w813555 0.0 10131583
20:00+12wsw511655 0.0 1014393